User: anonymous   Login
Location: Vancouver
(49.2500°N, 123.1330°W)
Time: 19:54:27
(UTC-08:00)
Language:

YAOGAN 6 - Orbit

View from above orbital plane
View from above orbital plane
View from above satellite
View from above satellite

Ground track
Ground track

The orbit data is extracted from the following two-line orbital elements,

1 34839U 09021A   17054.79316335  .00001025  00000-0  42832-4 0  9994
2 34839  97.1609 110.3258 0029144   6.8650 353.2982 15.25442973435305
Epoch (UTC): 23 February 2017 19:02:09
Eccentricity: 0.0029144
inclination: 97.1609°
perigee height: 469 km
apogee height: 509 km
right ascension of ascending node: 110.3258°
argument of perigee: 6.8650°
revolutions per day: 15.25442973
mean anomaly at epoch: 353.2982°
orbit number at epoch: 43530

The dashed part of the orbit path shows where the satellite is in the earth's shadow,  

DLR